Guasti, CA

12:38 AM PST on January 22, 2017 (GMT -0800)
Ontario International

Weather History for KONT - July, 2013

Change the Weather History Date:

Monday, July 1, 2013

  Actual Average Record
Temperature  
Mean Temperature 86 °F 76 °F  
Max Temperature 100 °F 90 °F 103 °F (2006)
Min Temperature 71 °F 62 °F 56 °F (2004)
Degree Days  
Heating Degree Days 0 0  
Month to date heating degree days 0 0  
Since 1 June heating degree days 0 5  
Since 1 July heating degree days 0 0  
Cooling Degree Days 21 11  
Month to date cooling degree days 21 11  
Year to date cooling degree days 618 400  
Since 1 June cooling degree days 327 234  
Growing Degree Days 36 (Base 50)    
Moisture  
Dew Point 58 °F    
Average Humidity 45    
Maximum Humidity 68    
Minimum Humidity 21    
Precipitation  
Precipitation T in 0.00 in 0.00 in (2017)
Month to date precipitation T 0.00  
Year to date precipitation 2.79 10.38  
Since 1 July precipitation T  
Snow  
Snow 0.00 in - - ()
Month to date snowfall 0.0  
Year to date snowfall 0.0  
Snow Depth 0.00 in    
Sea Level Pressure  
Sea Level Pressure 29.80 in    
Wind  
Wind Speed 7 mph (WSW)    
Max Wind Speed 17 mph    
Max Gust Speed 23 mph    
Visibility 10 miles    
Events Rain    
T = Trace of Precipitation, MM = Missing Value Source: NWS Daily Summary

Daily Weather History Graph

Daily Weather History Graph

Search for Another Location

Airport or City:

Trip Planner

Search our weather history database for the weather conditions in past years. The results will help you decide how hot, cold, wet, or windy it might be!

Date:

Astronomy

Jul. 01, 2013 Rise Set
Actual Time 5:42 AM PDT 8:05 PM PDT
Civil Twilight 5:13 AM PDT 8:34 PM PDT
Nautical Twilight 4:37 AM PDT 9:10 PM PDT
Astronomical Twilight 3:58 AM PDT 9:49 PM PDT
Moon 1:04 AM PDT (7/1) 2:34 PM PDT (7/1)
Length of Visible Light 15h 21m
Length of Day
14h 23m
Waning Crescent, 34% of the Moon is Illuminated
Jul 1
Waning Crescent
Jul 8
New
Jul 15
First Quarter
Jul 22
Full
Jul 29
Last Quarter

Hourly Weather History & Observations

Time (PDT) Temp. Heat Index Dew Point Humidity Pressure Visibility Wind Dir Wind Speed Gust Speed Precip Events Conditions
12:53 AM 78.1 °F - 61.0 °F 56% 29.75 in 10.0 mi SSW 4.6 mph - N/A   Clear
1:53 AM 75.0 °F - 61.0 °F 62% 29.75 in 10.0 mi WSW 5.8 mph - N/A   Clear
2:53 AM 73.0 °F - 62.1 °F 68% 29.78 in 10.0 mi WNW 5.8 mph - N/A   Clear
3:53 AM 75.0 °F - 61.0 °F 62% 29.78 in 10.0 mi Calm Calm - N/A   Clear
4:53 AM 73.0 °F - 61.0 °F 66% 29.82 in 10.0 mi Calm Calm - N/A   Scattered Clouds
5:53 AM 72.0 °F - 63.0 °F 73% 29.79 in 10.0 mi SSW 5.8 mph - 0.00 in Rain Light Rain
6:53 AM 73.0 °F - 63.0 °F 71% 29.82 in 9.0 mi NW 3.5 mph - 0.00 in Rain Light Rain
7:53 AM 75.9 °F - 62.1 °F 62% 29.83 in 10.0 mi Calm Calm - 0.00 in   Mostly Cloudy
8:53 AM 79.0 °F - 62.1 °F 56% 29.82 in 10.0 mi South 3.5 mph - N/A   Mostly Cloudy
9:53 AM 80.1 °F 81.1 °F 61.0 °F 52% 29.82 in 7.0 mi Calm Calm - N/A   Mostly Cloudy
10:53 AM 86.0 °F 85.7 °F 60.1 °F 41% 29.81 in 10.0 mi WSW 6.9 mph - N/A   Mostly Cloudy
11:53 AM 93.0 °F 92.3 °F 59.0 °F 32% 29.81 in 10.0 mi WSW 8.1 mph - N/A   Scattered Clouds
12:53 PM 95.0 °F 94.0 °F 57.9 °F 29% 29.83 in 10.0 mi West 12.7 mph - N/A   Mostly Cloudy
1:53 PM 95.0 °F 94.0 °F 57.9 °F 29% 29.83 in 10.0 mi WNW 12.7 mph 20.7 mph N/A   Mostly Cloudy
2:53 PM 97.0 °F 95.0 °F 55.0 °F 24% 29.80 in 10.0 mi West 11.5 mph 19.6 mph N/A   Mostly Cloudy
3:53 PM 99.0 °F 96.5 °F 53.1 °F 21% 29.78 in 10.0 mi West 9.2 mph - N/A   Scattered Clouds
4:53 PM 99.0 °F - 52.0 °F 21% 29.76 in 10.0 mi WSW 10.4 mph - N/A   Scattered Clouds
5:53 PM 99.0 °F - 52.0 °F 21% 29.76 in 10.0 mi WSW 8.1 mph - N/A   Mostly Cloudy
6:53 PM 91.9 °F 90.8 °F 57.9 °F 32% 29.78 in 10.0 mi SW 10.4 mph - N/A   Scattered Clouds
7:53 PM 87.1 °F 85.3 °F 55.0 °F 33% 29.80 in 10.0 mi West 9.2 mph - N/A   Scattered Clouds
8:53 PM 84.0 °F - 52.0 °F 33% 29.81 in 10.0 mi West 6.9 mph - N/A   Scattered Clouds
9:53 PM 81.0 °F 80.4 °F 53.1 °F 38% 29.83 in 10.0 mi West 5.8 mph - N/A   Partly Cloudy
10:53 PM 79.0 °F - 55.0 °F 44% 29.85 in 10.0 mi WNW 5.8 mph - N/A   Clear
11:53 PM 77.0 °F - 57.9 °F 52% 29.84 in 10.0 mi West 4.6 mph - N/A   Partly Cloudy